Flag for Afghanistan Weather past 2 weeks in Kabul, Afghanistan

Now
48 °F

Rain. Mostly cloudy.


Feels Like: 44 °F
Forecast: 26 / 44 °F
Wind: 9 mph from Southwest

Location: Peshawar Airport

Current Time: Mar 2, 2015 at 4:10:44 AM

Latest Report: Mar 2, 2015 at 3:30 AM


Visibility: 2 mi

Pressure: 29.77 "Hg

Humidity: 94%

Dew point: 46 °F

Location of KabulLocation

Historic Weather in Kabul — Graph

°F

Kabul temperature yesterday

Maximum temperature yesterday: 59 °F (at 10:30 AM)
Minimum temperature yesterday: 50 °F (at 11:30 PM)
Average temperature yesterday: 54 °F

Past Weeks' High & Low Weather Summary

 TemperatureHumidityPressure
High77 °F (Feb 22, 1:30 PM)100% (Feb 23, 10:30 AM)30.15 "Hg (Feb 23, 10:30 AM)
Low46 °F (Feb 17, 5:30 AM)31% (Feb 27, 2:30 PM)29.56 "Hg (Feb 25, 11:30 PM)
Average60 °F69%29.96 "Hg
* Reported Feb 15 2:30 AM — Mar 2 2:30 AM, Kabul, Weather by CustomWeather, © 2015

Note: Actual official high and low records may vary slightly from our data, if they occured in-between our weather recording intervals... More about our weather records

Advertising

Kabul weather history for previous 24 hours

 ConditionsComfort  
Time TempWeatherWind HumidityBarometerVisibility
2:30 AM
Mon, Mar 2
48 °FRain. Mostly cloudy.9 mph94%29.80 "Hg2 mi
1:30 AM48 °FDrizzle. Mostly cloudy.9 mph94%29.83 "Hg2 mi
12:30 AM50 °FRain. Mostly cloudy.7 mph94%29.86 "Hg2 mi
11:30 PM
Sun, Mar 1
50 °FRain. Mostly cloudy.9 mph94%29.86 "Hg2 mi
10:30 PM52 °FRain. Mostly cloudy.7 mph94%29.89 "Hg2 mi
9:30 PM52 °FDrizzle. Mostly cloudy.9 mph94%29.89 "Hg2 mi
8:30 PM52 °FDrizzle. Mostly cloudy.9 mph94%29.89 "Hg2 mi
7:30 PM52 °FRain. Mostly cloudy.9 mph94%29.89 "Hg2 mi
6:30 PM54 °FRain. Mostly cloudy.9 mph94%29.89 "Hg2 mi
5:30 PM54 °FRain. More clouds than sun.7 mph94%29.89 "Hg2 mi
4:30 PM54 °FRain. More clouds than sun.5 mph88%29.89 "Hg2 mi
3:30 PM54 °FRain. More clouds than sun.No wind88%29.89 "Hg2 mi
2:30 PM55 °FRain. Broken clouds.5 mph82%29.89 "Hg2 mi
1:30 PM57 °FRain. Broken clouds.7 mph67%29.95 "Hg2 mi
12:30 PM57 °FRain. Broken clouds.9 mph67%29.95 "Hg2 mi
11:30 AM59 °FBroken clouds.9 mph59%29.98 "Hg2 mi
10:30 AM59 °FBroken clouds.9 mph59%30.01 "Hg2 mi
9:30 AM57 °FCool.N/A63%30.01 "HgN/A
8:30 AM55 °FCool.N/A67%30.01 "HgN/A
7:30 AM52 °FCool.N/A72%30.01 "HgN/A
6:30 AM52 °FCool.N/A72%29.98 "HgN/A
5:30 AM54 °FPassing clouds.No wind72%29.95 "Hg2 mi
4:30 AM54 °FPassing clouds.No wind72%29.95 "Hg2 mi
Weather by CustomWeather, © 2015

See weather overviewHow to use our weather pages